Regional Weather Roundup
Issued by NWS Charleston, SC

Current Version | Previous Version | Text Only | Print | Product List | Glossary Off
Versions: 1 2 3 4 5 6 7 8 9 10 11 12 13 14 15 16 17 18 19 20 21 22 23 24 25 26 27 28 29 30 31 32 33 34 35 36 37 38 39 40 41 42 43 44 45 46 47 48 49 50
000 ASUS42 KCHS 201010 RWRCHS REGIONAL WEATHER ROUNDUP NATIONAL WEATHER SERVICE CHARLESTON SC 600 AM EDT MON OCT 20 2014 NOTE: "FAIR" INDICATES FEW OR NO CLOUDS BELOW 12,000 FEET WITH NO SIGNIFICANT WEATHER AND/OR OBSTRUCTIONS TO VISIBILITY. NOT ALL STATIONS ARE QUALITY CONTROLLED BY THE NATIONAL WEATHER SERVICE. USE DATA WITH CAUTION...ESPECIALLY DEWPOINT OBSERVATIONS. SCZ027-030-031-034>040-042>050-201100- ...SOUTH CAROLINA... CITY SKY/WX TMP DP RH WIND PRES REMARKS N CHARLESTON PTCLDY 54 49 83 CALM 30.13R WATERFRONT PRK N/A 63 N/A N/A N9 N/A FORT JOHNSON NOT AVBL JOHNS ISLAND PTSUNNY 55 54 94 CALM 30.12R PINOPOLIS N/A 59 52 77 SE3 30.03F MONCKS CORNER FAIR 48 48 100 CALM 30.13R SUMMERVILLE FAIR 46 46 100 CALM 30.14R BEAUFORT MCAS PTCLDY 54 52 93 N3 30.11S BEAUFORT ARPT FAIR 57 57 100 N5 30.11S HILTON HEAD IS NOT AVBL GEORGETOWN NOT AVBL WALTERBORO SUNNY 45 N/A N/A CALM 30.14R ORANGEBURG CLEAR 46 43 89 CALM 30.13S BARNWELL FAIR 43 43 100 CALM 30.13S AIKEN FAIR 43 43 100 CALM 30.16R MANNING FAIR 45 N/A N/A CALM 30.14R KINGSTREE NOT AVBL COLUMBIA CLEAR 44 41 89 SW3 30.13R SUMTER CLEAR 45 44 96 CALM 30.12S FLORENCE CLEAR 46 42 86 CALM 30.14S MYRTLE BEACH CLEAR 52 45 76 N7 30.13F N MYRTLE BEACH CLEAR 46 43 89 NE5 30.14S $$ GAZ063-065-086>088-099>101-113>116-118-119-134-136>141-150-201100- ...GEORGIA... CITY SKY/WX TMP DP RH WIND PRES REMARKS SAVANNAH ARPT CLEAR 54 50 86 N3 30.10S HUNTER AAF CLEAR 56 52 85 N2 30.08S FORT STEWART CLEAR 49 47 92 CALM 30.08S STATESBORO NOT AVBL SYLVANIA SUNNY 49 48 99 CALM 30.13R CLAXTON FAIR 45 45 100 CALM 30.10S THOMSON CLEAR 46 46 100 CALM 30.16S AUGUSTA-BUSH FOG 40 40 100 CALM 30.13S VSB 3/4 AUGUSTA-DANIEL CLEAR 53 49 86 CALM 30.13R SWAINSBORO FAIR 48 48 100 MISG 30.12R VIDALIA CLEAR 50 50 100 CALM 30.10S ALMA CLEAR 47 46 97 CALM 30.08S FOG WAYCROSS CLEAR 53 53 99 CALM 30.08S JESUP FAIR 52 52 100 CALM 30.09S BRUNSWICK CLEAR 52 52 100 CALM 30.08S SAINT SIMONS CLEAR 54 54 100 CALM 30.07S $$ SCZ027-028-034-036>038-045-046-048>050-GAZ119-141-201100- ...LAKE AND SUPPLEMENTAL COASTAL OBSERVATIONS... STATION/POSITION TIME TEMP WIND PRES WAVE SWELL AIR SEA DIR/SP/G HT/PER HT/PER/DIR (UTC) (F) (DEG/KT/KT) (MB) (FT/S) (FT/S/D) UPR LAKE MARION NOT AVBL WINYAH BAY 0900 51 300/ 3 1020.0S LAKE MURRAY 0900 56 100/ 6/ 8 1019.3F ACE BASIN NERRS 0900 53 CALM 1019.0S FORT PULASKI 1000 68 40/ 5/ 6 1019.1S SAPELO ISLAND NOT AVBL $$ ANZ835-935-AMZ111-154-330-350-352-354-374-450-454-472-201100- ...C-MAN AND BUOY OBSERVATIONS... STATION/POSITION TIME TEMP WIND PRES WAVE SWELL AIR SEA DIR/SP/G HT/PER HT/PER/DIR (UTC) (F) (DEG/KT/KT) (MB) (FT/S) (FT/S/D) FOLLY BEACH CMAN 0900 64 340/ 5/ 8 1020.0F BUOY 41004 1000 70 79 120/ 4/ 8 1019.0S 2/10 2/10 BUOY 41008 1000 71 76 90/ 8/ 10 1018.3R 3/ 6 2/ 60/ 6 5E ST. MARYS GA 1000 77 N/A 3/ 6 2/ 90/13 FRYING PAN BUOY 1000 67 75 90/ 4/ 8 1020.7S 2/10 2/ 90/10 BUOY 41025 1000 62 10/ 4/ 8 1020.7R 4/12 3/ 60/12 CAPE LOOKOUT NC 0900 60 10/ 9/ 9 1020.5R BUOY 41002 0926 70 80 80/ 8/ 12 1019.7R 5/ 8 5/ 10/ 8 BUOY 41010 1000 77 80 50/ 14/ 16 1016.6S 4/ 7 3/ 10/ 7 BUOY 41012 NOT AVBL ST AUGUSTINE FL 1000 75 70/ 11/ 12 1017.8R CAPERS NEARSHORE 0900 66 60/ 10/ 12 N/A FRIPP NEARSHORE NOT AVBL $$

USA.gov is the U.S. government's official web portal to all federal, state and local government web resources and services.